KAZTUBAC1 Weather Reports


time (UTC)temp
C
wind
direction
speed
KPH
gust
KPH
rain 1hr
cm
rain 24hr
cm
rain mn
cm
humidity
%
barometer
mb
20260509032347 26 0 1.6 4.8 0.00 0.00 0.00 5 1007.2
20260509031350 26 0 3.2 8.0 0.00 0.00 0.00 5 1007.0
20260509030334 26 0 4.8 8.0 0.00 0.00 0.00 5 1006.9
20260509025350 26 0 4.8 8.0 0.00 0.00 0.00 5 1006.9
20260509024340 26 0 3.2 4.8 0.00 0.00 0.00 5 1006.8
20260509023357 27 0 0.0 4.8 0.00 0.00 0.00 4 1006.7
20260509022403 28 0 0.0 1.6 0.00 0.00 0.00 5 1006.7
20260509021333 28 0 1.6 12.9 0.00 0.00 0.00 3 1006.7
20260509020303 29 0 4.8 12.9 0.00 0.00 0.00 2 1006.4
20260509014107 31 0 6.4 16.1 0.00 0.00 0.00 1 1006.3
20260509013122 31 0 6.4 16.1 0.00 0.00 0.00 1 1006.3
20260509010951 31 0 6.4 16.1 0.00 0.00 0.00 1 1006.4
20260509010002 32 0 6.4 20.9 0.00 0.00 0.00 1 1006.3
20260509004946 32 0 4.8 20.9 0.00 0.00 0.00 1 1006.4
20260509003934 32 0 8.0 20.9 0.00 0.00 0.00 1 1006.4
20260509002947 32 0 11.3 20.9 0.00 0.00 0.00 1 1006.5
20260509001923 32 0 8.0 19.3 0.00 0.00 0.00 1 1006.5
20260508235716 32 0 9.7 27.4 0.00 0.00 0.00 1 1006.5
20260508234728 32 0 9.7 24.1 0.00 0.00 0.00 1 1006.6
20260508233715 32 0 9.7 24.1 0.00 0.00 0.00 1 1006.6
20260508232740 32 0 12.9 20.9 0.00 0.00 0.00 1 1006.7
20260508231756 32 0 12.9 25.7 0.00 0.00 0.00 1 1006.6
20260508230815 32 0 11.3 27.4 0.00 0.00 0.00 1 1006.7
20260508225833 32 0 9.7 27.4 0.00 0.00 0.00 1 1006.9
20260508224824 32 0 12.9 22.5 0.00 0.00 0.00 1 1007.0
20260508222701 32 0 11.3 25.7 0.00 0.00 0.00 1 1007.1
20260508220527 32 0 4.8 20.9 0.00 0.00 0.00 1 1007.4
20260508215453 33 0 8.0 19.3 0.00 0.00 0.00 1 1007.6
20260508214429 33 0 6.4 14.5 0.00 0.00 0.00 2 1007.8
20260508213421 32 0 9.7 25.7 0.00 0.00 0.00 2 1008.1
20260508212425 32 0 8.0 25.7 0.00 0.00 0.00 2 1008.4
20260508211432 32 0 9.7 19.3 0.00 0.00 0.00 2 1008.4
20260508210406 32 0 11.3 27.4 0.00 0.00 0.00 2 1008.5
20260508205410 32 0 12.9 30.6 0.00 0.00 0.00 2 1008.8
20260508204433 32 0 8.0 32.2 0.00 0.00 0.00 3 1008.9
20260508203451 32 0 9.7 32.2 0.00 0.00 0.00 2 1008.8
20260508202455 31 0 6.4 24.1 0.00 0.00 0.00 3 1008.9
20260508201422 32 0 11.3 24.1 0.00 0.00 0.00 3 1009.1
20260508200400 31 0 9.7 22.5 0.00 0.00 0.00 3 1009.2
20260508195402 32 0 8.0 20.9 0.00 0.00 0.00 3 1009.3
20260508193211 31 0 8.0 22.5 0.00 0.00 0.00 3 1009.5
20260508192223 31 0 6.4 19.3 0.00 0.00 0.00 5 1009.6
20260508191230 31 0 6.4 19.3 0.00 0.00 0.00 4 1009.7
20260508185112 31 0 6.4 19.3 0.00 0.00 0.00 7 1010.1
20260508184116 30 0 6.4 19.3 0.00 0.00 0.00 7 1010.3
20260508183116 30 0 4.8 17.7 0.00 0.00 0.00 7 1010.5
20260508182120 29 0 8.0 20.9 0.00 0.00 0.00 6 1010.6
20260508181050 29 0 4.8 20.9 0.00 0.00 0.00 8 1010.6
20260508173730 28 0 6.4 17.7 0.00 0.00 0.00 10 1010.9
20260508172752 28 0 4.8 17.7 0.00 0.00 0.00 9 1011.0
20260508171804 28 0 3.2 16.1 0.00 0.00 0.00 10 1011.2
20260508170751 27 0 3.2 16.1 0.00 0.00 0.00 12 1011.3
20260508165724 27 0 4.8 14.5 0.00 0.00 0.00 10 1011.4
20260508164740 26 0 4.8 14.5 0.00 0.00 0.00 11 1011.4
20260508163800 26 0 3.2 14.5 0.00 0.00 0.00 12 1011.4
20260508162823 25 0 1.6 8.0 0.00 0.00 0.00 12 1011.4
20260508161749 25 0 1.6 8.0 0.00 0.00 0.00 14 1011.3
20260508160749 24 0 0.0 0.0 0.00 0.00 0.00 15 1011.3
20260508155731 23 0 0.0 0.0 0.00 0.00 0.00 18 1011.2
20260508153529 21 0 3.2 11.3 0.00 0.00 0.00 25 1011.2
20260508152512 20 0 3.2 11.3 0.00 0.00 0.00 27 1011.3
20260508150422 17 0 3.2 8.0 0.00 0.00 0.00 31 1011.5
20260508145439 16 0 3.2 8.0 0.00 0.00 0.00 33 1011.4
20260508143350 15 0 3.2 8.0 0.00 0.00 0.00 36 1011.5
20260508142327 14 0 3.2 8.0 0.00 0.00 0.00 37 1011.6
20260508141309 13 0 1.6 6.4 0.00 0.00 0.00 38 1011.5
20260508140239 12 0 1.6 6.4 0.00 0.00 0.00 39 1011.4
20260508135237 12 0 1.6 6.4 0.00 0.00 0.00 39 1011.5
20260508134208 11 0 3.2 6.4 0.00 0.00 0.00 39 1011.4
20260508133231 11 0 1.6 6.4 0.00 0.00 0.00 41 1011.4
20260508132206 10 0 1.6 8.0 0.00 0.00 0.00 43 1011.3
20260508131219 9 0 1.6 8.0 0.00 0.00 0.00 44 1011.2
20260508130153 9 0 0.0 1.6 0.00 0.00 0.00 44 1011.2
20260508125126 9 0 0.0 3.2 0.00 0.00 0.00 43 1011.0
20260508124115 10 0 0.0 1.6 0.00 0.00 0.00 42 1010.9
20260508121956 9 0 0.0 0.0 0.00 0.00 0.00 43 1010.6
20260508121011 9 0 1.6 4.8 0.00 0.00 0.00 43 1010.5
20260508114800 10 0 0.0 3.2 0.00 0.00 0.00 43 1010.4
20260508113726 10 0 0.0 4.8 0.00 0.00 0.00 42 1010.4
20260508112715 10 0 0.0 4.8 0.00 0.00 0.00 41 1010.3
20260508111656 10 0 0.0 3.2 0.00 0.00 0.00 41 1010.2
20260508104432 11 0 1.6 3.2 0.00 0.00 0.00 38 1010.2
20260508102323 12 0 1.6 8.0 0.00 0.00 0.00 37 1010.0
20260508101303 12 0 3.2 8.0 0.00 0.00 0.00 36 1010.1
20260508100230 12 0 1.6 4.8 0.00 0.00 0.00 36 1010.0
20260508095247 12 0 0.0 3.2 0.00 0.00 0.00 35 1010.0
20260508094251 12 0 0.0 1.6 0.00 0.00 0.00 34 1009.9
20260508093307 12 0 4.8 8.0 0.00 0.00 0.00 34 1009.8
20260508092251 13 0 1.6 6.4 0.00 0.00 0.00 34 1009.9
20260508091238 13 0 0.0 6.4 0.00 0.00 0.00 32 1010.0
20260508090242 14 0 0.0 3.2 0.00 0.00 0.00 31 1010.1
20260508085248 14 0 0.0 3.2 0.00 0.00 0.00 31 1010.1
20260508084218 14 0 0.0 3.2 0.00 0.00 0.00 31 1010.2
20260508083238 14 0 1.6 1.6 0.00 0.00 0.00 30 1010.2
20260508082222 15 0 0.0 4.8 0.00 0.00 0.00 30 1010.1
20260508081201 15 0 0.0 6.4 0.00 0.00 0.00 29 1010.4
20260508080152 15 0 0.0 4.8 0.00 0.00 0.00 28 1010.4
20260508075210 16 0 0.0 0.0 0.00 0.00 0.00 27 1010.5
20260508074152 15 0 0.0 3.2 0.00 0.00 0.00 28 1010.6
20260508073154 15 0 0.0 0.0 0.00 0.00 0.00 28 1010.6
20260508072216 15 0 0.0 3.2 0.00 0.00 0.00 28 1010.7
20260508071217 16 0 0.0 1.6 0.00 0.00 0.00 26 1010.8
20260508070224 16 0 0.0 4.8 0.00 0.00 0.00 27 1010.8
20260508064034 16 0 0.0 1.6 0.00 0.00 0.00 25 1010.8
20260508063054 16 0 0.0 1.6 0.00 0.00 0.00 25 1010.9
20260508062058 17 0 0.0 0.0 0.00 0.00 0.00 24 1011.1
20260508061047 17 0 1.6 4.8 0.00 0.00 0.00 22 1011.1
20260508060026 18 0 0.0 0.0 0.00 0.00 0.00 20 1011.0
20260508055032 20 0 0.0 0.0 0.00 0.00 0.00 19 1010.9
20260508054038 20 0 4.8 8.0 0.00 0.00 0.00 18 1010.9
20260508053019 20 0 6.4 14.5 0.00 0.00 0.00 19 1011.0
20260508051957 20 0 6.4 14.5 0.00 0.00 0.00 18 1011.3
20260508051018 20 0 3.2 12.9 0.00 0.00 0.00 19 1011.7
20260508045948 20 0 3.2 8.0 0.00 0.00 0.00 19 1011.8
20260508045007 21 0 3.2 8.0 0.00 0.00 0.00 18 1011.6
20260508044031 21 0 1.6 12.9 0.00 0.00 0.00 17 1011.1
20260508041839 21 0 3.2 11.3 0.00 0.00 0.00 17 1010.8
20260508035715 21 0 0.0 6.4 0.00 0.00 0.00 17 1010.4
20260508034731 22 0 4.8 16.1 0.00 0.00 0.00 15 1010.2
20260508033702 22 0 8.0 16.1 0.00 0.00 0.00 14 1009.6